Location: Unspecified
(0.0000°N, 0.0000°E)
Time: 07:22:15
(UTC+00:00)

S-56A Canister/Altair - Pass Details

Date: 27 May 2024
Orbit: 637 x 2489 km, 38.9° (Epoch: 22 June)

Event Time Altitude Azimuth Distance (km) Brightness Sun altitude
Rises 01:59:17 0° 237° (WSW) 5,622 - -53.4°
Reaches altitude 10° 02:02:44 10° 239° (WSW) 4,790 - -52.7°
Maximum altitude 02:16:48 65° 318° (NW) 2,665 - -49.8°
Exits shadow 02:19:22 59° 356° (N) 2,770 10.1 -49.3°
Drops below altitude 10° 02:31:15 10° 38° (NE) 4,888 12.1 -46.8°
Sets 02:34:51 0° 41° (NE) 5,737 12.7 -46.0°
